Tracking 18784 objects as of 17-August-2017
HD Live streaming from Space Station
objects crossing your sky now

COSMOS 2430

Track COSMOS 2430 now!
COSMOS 2430 is classified as:


NORAD ID: 32268
Int'l Code: 2007-049A
Perigee: 221.9 km
Apogee: 40,140.7 km
Inclination: 62.9 °
Period: 717.6 minutes
Semi major axis: 26552 km
RCS: 3.1623 m2 (large)
Launch date: October 23, 2007
Source: Commonwealth of Independent States (former USSR) (CIS)
Launch site: PLESETSK MISSILE AND SPACE COMPLEX (PKMTR)
Your satellite tracking list
Your tracking list is empty





NASA's NSSDC Master Catalog

Two Line Element Set (TLE):
1 32268U 07049A   17227.26545587 +.00002377 +00000-0 +30047-3 0  9998
2 32268 062.9026 304.0349 7517020 241.6912 025.7049 02.00654954071907
Source of the keplerian elements: AFSPC